Weather in Sassari

Italy     40°43′14″N   8°33′50″E
temp.,
°C
wind,
m/s
gust,
m/s
humid.,
%
clouds,
%
prec.,
mm/h
press.,
hPa
HPBL,
m
7 may, fri
fri723:00+13s2272100 0.0 101719
02:00+12s22735 0.0 101737
05:00+12s34802 0.0 101673
08:00+15ssw49715 0.0 1016417
11:00+20wsw66628 0.0 1017844
14:00+21w67579 0.0 10171157
17:00+20w7956100 0.0 1016946
20:00+16wsw488280 0.0 1017420
8 may, sat
sat823:00+13s34946 0.0 101895
02:00+12ssw469294 0.0 1018132
05:00+13ssw369658 0.0 1018149
08:00+15w388256 0.0 1018392
11:00+20wnw46533 0.0 1019828
14:00+21nw46463 0.0 1019877
17:00+20nw45460 0.0 1018641
20:00+16n11640 0.0 101818
9 may, sun
sun923:00+14ese21650 0.0 101810
02:00+14ese22610 0.0 101717
05:00+14ese336047 0.0 101629
08:00+17se2356100 0.0 101677
11:00+24ese243980 0.0 1015808
14:00+28sse153386 0.0 10131531
17:00+25nw234435 0.0 1013606
20:00+20nnw126556 0.0 101333
10 may, mon
mon1023:00+18se226455 0.0 101419
02:00+17ese46675 0.0 101382
05:00+17ese485914 0.0 1012113
08:00+19ese355660 0.0 1012115
11:00+28s49296 0.0 10121209
14:00+27wsw2735100 0.0 10121590
17:00+21wsw5859100 0.0 1013559
20:00+18ssw2483100 0.0 1015217
11 may, tue
tue1123:00+15ese229177 0.0 101420
02:00+16sse22806 0.0 101415
05:00+14w239486 0.0 101563
08:00+16nne238613 0.3 1015313
11:00+21nw135793 0.0 10141066
14:00+21wnw3555100 0.0 10141079
17:00+20sw575539 0.1 1013909
20:00+17sw610780 0.1 1014734